DW7098 Weather Reports


Display with metric or nautical units.
time (UTC)temp
F
wind
direction
speed
MPH
gust
MPH
rain 1hr
in
rain 24hr
in
rain mn
in
humidity
%
barometer
mb
20260831200104 72 350 1.0 7.0 0.00 0.00 0.00
20260831193023 71 99 0.0 5.0 0.00 0.00 0.00
20260831190107 70 69 2.0 8.0 0.00 0.00 0.00
20260831183028 69 63 3.0 8.0 0.00 0.00 0.00
20260831180052 67 55 3.0 9.0 0.00 0.00 0.00
20260831163050 60 86 2.0 4.0 0.00 0.00 0.00
20260831160059 57 59 2.0 3.0 0.00 0.00 0.00
20260831150107 54 273 0.0 1.0 0.00 0.00 0.00
20260831143047 52 273 0.0 0.0 0.00 0.00 0.00
20260831140055 52 273 0.0 0.0 0.00 0.00 0.00
20260831133035 52 273 0.0 0.0 0.00 0.00 0.00
20260831130104 52 273 0.0 0.0 0.00 0.00 0.00
20260831123042 52 273 0.0 1.0 0.00 0.00 0.00
20260831113037 53 273 0.0 0.0 0.00 0.00 0.00
20260831110105 53 273 0.0 0.0 0.00 0.00 0.00
20260831103041 54 273 0.0 1.0 0.00 0.00 0.00
20260831100052 54 273 0.0 0.0 0.00 0.00 0.00
20260831083045 55 273 0.0 0.0 0.00 0.00 0.00
20260831080051 56 273 0.0 0.0 0.00 0.00 0.00
20260831073036 56 273 0.0 0.0 0.00 0.00 0.00
20260831070105 57 273 0.0 0.0 0.00 0.00 0.00
20260831063044 57 273 0.0 0.0 0.00 0.00 0.00
20260831060050 58 273 0.0 0.0 0.00 0.00 0.00
20260831053029 58 273 0.0 0.0 0.00 0.00 0.00
20260831050053 59 218 0.0 1.0 0.00 0.00 0.00
20260831043052 59 218 0.0 0.0 0.00 0.00 0.00
20260831033041 61 239 0.0 1.0 0.00 0.00 0.00
20260831030052 62 225 0.0 1.0 0.00 0.00 0.00
20260831023033 64 255 0.0 2.0 0.00 0.00 0.00
20260831020105 65 230 0.0 2.0 0.00 0.00 0.00
20260831013046 66 235 0.0 3.0 0.00 0.00 0.00
20260831010055 67 209 1.0 4.0 0.00 0.00 0.00
20260831000104 69 116 0.0 7.0 0.00 0.00 0.00
20260830233044 71 215 2.0 4.0 0.00 0.00 0.00
20260830223035 71 314 3.0 9.0 0.00 0.00 0.00
20260830220108 72 225 2.0 8.0 0.00 0.00 0.00
20260830213049 71 268 3.0 9.0 0.00 0.00 0.00
20260830203042 69 253 3.0 9.0 0.00 0.00 0.00